Location: Lucerne Valley
(34.4439°N, 116.9669°E)
Time: 01:26:38
(UTC-08:00)

Tiangong 2 - Pass Details

Date: 15 October 2017
Orbit: 386 x 390 km, 42.8° (Epoch: 12 December)

Event Time Altitude Azimuth Distance (km) Brightness Sun altitude
Exits shadow 13:25:02 16° 23° (NNE) 1,127 3.7 -24.1°
Drops below altitude 10° 13:26:20 10° 45° (NE) 1,419 4.6 -23.8°
Sets 13:28:52 0° 66° (ENE) 2,275 6.2 -23.3°
